Location: Cornospital
(48.0620°N, 3.3837°W)
Time: 21:21:24
(UTC+00:00)

Cosmos 1674 - Pass Details

Date: 17 June 2021
Orbit: 494 x 514 km, 82.5° (Epoch: 02 August)

Event Time Altitude Azimuth Distance (km) Brightness Sun altitude
Exits shadow 21:38:13 - 191° (SSW) 2,055 5.3 -10.4°
Reaches altitude 10° 21:39:05 10° 192° (SSW) 1,695 4.9 -10.5°
Maximum altitude 21:42:48 80° 279° (W) 511 2.7 -10.8°
Drops below altitude 10° 21:46:32 10° 7° (N) 1,704 6.1 -11.2°
Sets 21:48:39 0° 9° (N) 2,591 7.0 -11.4°
